[[{"header":{"parameterUnit":"m.s-1","parameterCategory":1,"la1":30.2991,"la2":30.254,"lo1":-89.0895,"lo2":-89.0444,"dy":0.0017,"dx":0.0017,"nx":28,"ny":28,"refTime":"2023-08-05T21:00:00:Z","depth":0,"parameterNumber":2,"parameterNumberName":"U-component_of_WINDS"},"data":[0,0,0,0,0,0,0,0,0,0,0,0,0,0,0,0,0,0,0,0,0,0,0,0,0,0,0,0,0,0,0,0,0,0,0,0,0,0,0,0,0,0,0,0,0,0,0,0,0,0,0,0,0,0,0,0,0,0,4.7817,4.7818,0,4.7953,4.7955,4.7956,4.7958,4.7956,4.7955,4.7953,4.8094,4.8099,4.8104,0,0,0,0,0,0,0,0,0,0,0,0,0,4.7559,4.7563,4.7817,4.7818,4.782,4.7953,4.7955,4.7957,4.7958,4.7956,4.7954,4.7952,4.8092,4.8098,4.8105,0,0,0,0,0,0,0,0,0,0,0,0,0,4.768,4.7565,4.7816,4.7837,4.784,4.7953,4.7955,4.7957,4.7959,4.7956,4.7954,4.7951,4.809,4.8098,4.8106,4.8207,0,0,4.813,4.8134,0,0,0,0,0,0,0,0,4.7673,4.769,4.7832,4.7836,4.784,4.7936,4.7915,4.8041,4.796,4.7914,4.7953,4.795,4.8043,4.8055,4.8086,4.8213,4.8219,4.8131,4.8136,4.8139,4.8141,0,0,0,0,0,0,0,4.7665,4.7684,4.7871,4.7834,4.7839,4.784,4.7854,4.7939,4.7992,4.7918,4.7918,4.7934,4.8045,4.8079,4.809,4.8222,4.8131,4.8138,4.8143,4.8146,4.8438,4.8441,0,0,0,0,0,0,4.7652,4.7677,4.7866,4.7875,4.7748,4.7846,4.7863,4.7908,4.7991,4.8001,4.7936,4.7934,4.8066,4.808,4.8095,4.8218,4.8139,4.8147,4.8151,4.8435,4.8439,4.8442,0,0,0,0,0,0,4.7647,4.7669,4.7861,4.7776,4.7801,4.7854,4.7904,4.7912,4.7945,4.8005,4.8014,4.7961,4.8065,4.8083,4.8179,4.8223,4.815,4.8158,4.8431,4.8436,4.844,4.8465,0,0,0,0,0,0,4.7639,4.7667,4.7706,4.7777,4.7805,4.7942,4.7907,4.7916,4.7959,4.7957,4.803,4.804,4.8064,4.8167,4.8187,4.8233,4.8164,4.8428,4.8434,4.8439,4.8461,4.847,4.8478,0,0,0,0,0,4.763,4.7708,4.7708,4.7731,4.7855,4.7945,4.7961,4.7987,4.7963,4.8002,4.804,4.8038,4.8215,4.8176,4.8199,4.8248,4.8425,4.8432,4.8438,4.8457,4.8468,4.8478,0,0,0,0,0,0,4.7641,4.7718,4.7718,4.7822,4.7877,4.7945,4.7996,4.7998,4.8062,4.8057,4.8087,4.8104,4.8198,4.8233,4.8189,4.835,4.8317,4.8329,4.8324,4.8335,4.8343,4.8333,4.8171,0,0,0,0,0,4.7656,4.7723,4.7786,4.7871,4.7898,4.7942,4.7983,4.7998,4.8056,4.808,4.8125,4.8182,4.825,4.8295,4.8361,4.8466,4.8482,4.8511,4.852,4.8526,4.8536,4.8593,4.8607,4.8463,4.8463,4.8463,0,0,4.7686,4.7736,4.7777,4.7874,4.7919,4.7987,4.7962,4.8036,4.8087,4.8091,4.8183,4.8218,4.8284,4.8384,4.8431,4.8416,4.8579,4.8535,4.854,4.8546,4.8601,4.8615,4.8627,4.8468,4.8467,4.8466,0,0,4.7777,4.7822,4.7897,4.7942,4.8009,4.8038,4.8056,4.8124,4.8148,4.8241,4.8245,4.8307,4.8424,4.8471,4.851,4.8617,4.8617,4.8638,4.8683,4.8739,4.875,4.876,4.8798,4.8811,4.8648,4.8648,4.8648,0,4.7806,4.7909,4.7935,4.8009,4.8052,4.8058,4.8135,4.8177,4.8263,4.8293,4.8275,4.8422,4.8467,4.8578,4.8604,4.8636,4.8657,4.863,4.8746,4.8757,4.8767,4.8803,4.8817,4.865,4.865,4.8649,4.8649,0,4.7941,4.8013,4.8066,4.8148,4.8197,4.8271,4.8309,4.8355,4.8366,4.8397,4.8491,4.8545,4.8622,4.865,4.8662,4.8763,4.8752,4.874,4.8707,4.8782,4.8816,4.883,4.8653,4.8652,4.8651,4.8651,0,0,4.8042,4.8138,4.8157,4.8194,4.8269,4.8325,4.84,4.8475,4.8513,4.8573,4.8636,4.8735,4.8725,4.8769,4.8786,4.8835,4.8916,4.8817,4.8819,4.8833,4.903,4.9037,4.9053,4.8917,4.892,4.8922,4.9024,0,4.814,4.8273,4.8298,4.8414,4.848,4.8488,4.8553,4.8606,4.8637,4.8697,4.8732,4.8801,4.8782,4.8809,4.8858,4.8896,4.8956,4.8889,4.8976,4.8978,4.8958,4.9071,4.9079,4.9173,4.9038,4.904,4.9042,0,4.8271,4.8333,4.8455,4.8521,4.8549,4.8608,4.8678,4.8736,4.8797,4.8816,4.8865,4.8876,4.8955,4.8919,4.9027,4.8981,4.9018,4.9042,4.9047,4.9055,4.9014,4.9081,4.9204,4.9217,4.9063,4.9062,4.906,0,4.8331,4.8445,4.8532,4.8564,4.8643,4.8684,4.8719,4.8777,4.882,4.8882,4.891,4.8981,4.9019,4.9074,4.9104,4.9075,4.9209,4.9177,4.9227,4.9226,4.9254,4.9251,4.9383,4.928,4.9279,4.9279,4.9279,0,4.8437,4.8511,4.856,4.8614,4.8697,4.8726,4.8808,4.8842,4.8894,4.8954,4.8966,4.9022,4.906,4.9122,4.9146,4.9231,4.9249,4.9266,4.9271,4.9264,4.9262,4.9288,4.9282,4.9283,4.9282,4.9281,4.9281,0,4.8517,4.8553,4.8649,4.8716,4.8735,4.8793,4.885,4.8903,4.8934,4.901,4.903,4.9078,4.9152,4.9188,4.9279,4.9296,4.9392,4.9393,4.9371,4.9373,4.942,4.9415,4.9572,4.9594,4.9478,4.9479,4.948,0,4.8582,4.8639,4.8712,4.8753,4.8789,4.8855,4.8899,4.893,4.8976,4.9049,4.9092,4.9166,4.9227,4.9344,4.9387,4.9457,4.946,4.951,4.9471,4.9461,4.946,4.9455,4.9461,4.9517,4.9518,4.9519,4.952,0,4.8692,4.8707,4.877,4.8839,4.8891,4.8948,4.9003,4.9036,4.9076,4.9126,4.9201,4.9248,4.9341,4.9414,4.9487,4.9524,4.9528,4.9532,4.9547,4.954,4.9524,4.9532,4.9389,4.9528,4.9527,4.9527,4.9526,4.9526,4.8766,4.8816,4.8876,4.8945,4.899,4.9041,4.9094,4.9131,4.9194,4.9271,4.9286,4.9366,4.9425,4.9523,4.9562,4.9624,4.9613,4.9635,4.964,4.9645,4.9647,4.9515,4.9638,4.9638,4.9637,4.9637,4.9637,0,4.8876,4.8914,4.8978,4.9054,4.9109,4.9109,4.917,4.9216,4.9285,4.934,4.9399,4.9485,4.9556,4.9605,4.9677,4.9717,4.9721,4.9735,4.9732,4.974,4.9654,4.9633,4.9731,4.9731,4.9731,4.9731,4.973,4.973,4.8939,4.9024,4.9047,4.9154,4.9192,4.927,4.9305,4.9352,4.9395,4.9491,4.9549,4.9581,4.9633,4.9709,4.9774,4.9786,4.9812,4.9826,4.9838,4.9756,4.9746,4.9737,4.9717,4.9831,4.9831,4.9919,4.992,4.992]},{"header":{"parameterUnit":"m.s-1","parameterCategory":1,"la1":30.2991,"la2":30.254,"lo1":-89.0895,"lo2":-89.0444,"dy":0.0017,"dx":0.0017,"nx":28,"ny":28,"refTime":"2023-08-05T21:00:00:Z","depth":0,"parameterNumber":3,"parameterNumberName":"V-component_of_WINDS"},"data":[0,0,0,0,0,0,0,0,0,0,0,0,0,0,0,0,0,0,0,0,0,0,0,0,0,0,0,0,0,0,0,0,0,0,0,0,0,0,0,0,0,0,0,0,0,0,0,0,0,0,0,0,0,0,0,0,0,0,2.2303,2.2304,0,2.2359,2.2359,2.236,2.237,2.237,2.2369,2.2369,2.2423,2.2424,2.2426,0,0,0,0,0,0,0,0,0,0,0,0,0,2.2203,2.2205,2.2303,2.2304,2.2305,2.2359,2.236,2.236,2.237,2.237,2.2369,2.2369,2.2422,2.2424,2.2426,0,0,0,0,0,0,0,0,0,0,0,0,0,2.2251,2.2205,2.2303,2.2316,2.2318,2.2359,2.236,2.236,2.237,2.237,2.2369,2.2368,2.2421,2.2424,2.2427,2.2457,0,0,2.2435,2.2436,0,0,0,0,0,0,0,0,2.2249,2.2255,2.2314,2.2316,2.2318,2.2357,2.2344,2.2393,2.2371,2.235,2.2369,2.2368,2.2401,2.2406,2.2417,2.246,2.2462,2.2435,2.2437,2.2438,2.2439,0,0,0,0,0,0,0,2.2245,2.2253,2.2325,2.2315,2.2317,2.2318,2.2325,2.2353,2.2379,2.2352,2.2353,2.236,2.2402,2.2415,2.2419,2.2463,2.2435,2.2438,2.244,2.2441,2.2533,2.2533,0,0,0,0,0,0,2.224,2.225,2.2323,2.2327,2.2281,2.2321,2.2328,2.2345,2.2378,2.2383,2.236,2.236,2.241,2.2415,2.2421,2.2459,2.2438,2.2441,2.2442,2.2532,2.2533,2.2534,0,0,0,0,0,0,2.2238,2.2246,2.2321,2.2289,2.2298,2.2323,2.2343,2.2346,2.2359,2.2385,2.2389,2.2369,2.241,2.2417,2.2448,2.246,2.2442,2.2445,2.2531,2.2532,2.2533,2.2535,0,0,0,0,0,0,2.2235,2.2246,2.2258,2.2289,2.23,2.2349,2.2343,2.2348,2.2364,2.2364,2.2394,2.2398,2.241,2.2444,2.2451,2.2464,2.2447,2.253,2.2531,2.2533,2.2534,2.2536,2.2537,0,0,0,0,0,2.2231,2.2256,2.2259,2.2268,2.2317,2.235,2.2356,2.237,2.2365,2.2378,2.2394,2.2397,2.2458,2.2447,2.2455,2.2469,2.2529,2.2531,2.2533,2.2533,2.2535,2.2537,0,0,0,0,0,0,2.2225,2.226,2.2264,2.2299,2.2322,2.2351,2.2368,2.2373,2.2396,2.2395,2.2411,2.2417,2.2448,2.2461,2.2449,2.25,2.2493,2.2496,2.249,2.2493,2.2495,2.2491,2.2449,0,0,0,0,0,2.2228,2.2253,2.2282,2.231,2.2321,2.2342,2.2357,2.2367,2.239,2.2399,2.2418,2.2439,2.2463,2.2479,2.2502,2.2535,2.2541,2.2549,2.2551,2.2552,2.2555,2.2573,2.2577,2.2539,2.2539,2.2539,0,0,2.2234,2.2256,2.2271,2.231,2.2328,2.2353,2.235,2.2376,2.2395,2.2403,2.2434,2.2448,2.2473,2.2506,2.2521,2.2518,2.2567,2.2554,2.2555,2.2557,2.2575,2.2579,2.2582,2.254,2.254,2.254,0,0,2.2258,2.2277,2.2303,2.2322,2.235,2.2363,2.237,2.2399,2.2409,2.2441,2.2447,2.2468,2.2509,2.2527,2.2541,2.2571,2.2575,2.2578,2.2588,2.2606,2.2609,2.2612,2.2622,2.2626,2.2581,2.2581,2.2581,0,2.2261,2.23,2.2315,2.2342,2.2358,2.2367,2.2393,2.241,2.2444,2.2454,2.2451,2.2503,2.252,2.2557,2.2564,2.2575,2.2582,2.2575,2.2607,2.261,2.2613,2.2623,2.2627,2.2581,2.2581,2.2581,2.2581,0,2.2303,2.2329,2.2347,2.238,2.2399,2.2424,2.2443,2.2459,2.2467,2.2481,2.2512,2.2534,2.2562,2.2571,2.2578,2.2608,2.2606,2.2604,2.2598,2.2617,2.2627,2.2631,2.2581,2.2581,2.2581,2.2581,0,0,2.2325,2.2367,2.2373,2.2388,2.242,2.244,2.2465,2.2494,2.2507,2.253,2.2552,2.2586,2.2585,2.2602,2.261,2.2626,2.2648,2.2623,2.2624,2.2627,2.2683,2.2684,2.2688,2.265,2.2651,2.2652,2.2681,0,2.2352,2.24,2.2414,2.2454,2.2478,2.2487,2.2509,2.253,2.2544,2.2565,2.258,2.2604,2.2601,2.2611,2.2627,2.2642,2.2659,2.264,2.267,2.2671,2.2664,2.2693,2.2694,2.272,2.2685,2.2685,2.2686,0,2.2391,2.2416,2.2458,2.2486,2.2497,2.2517,2.2544,2.2565,2.2588,2.2597,2.2615,2.2623,2.2649,2.264,2.2676,2.2662,2.2675,2.2684,2.2686,2.2689,2.268,2.2698,2.2729,2.2733,2.2692,2.2691,2.2691,0,2.2403,2.2446,2.2477,2.249,2.2524,2.2537,2.2552,2.2575,2.2591,2.2614,2.2625,2.265,2.2664,2.2683,2.2696,2.2689,2.2731,2.2723,2.2738,2.2738,2.2747,2.2746,2.2781,2.2755,2.2755,2.2755,2.2754,0,2.2432,2.2458,2.2483,2.2502,2.2531,2.2546,2.2574,2.2588,2.2609,2.263,2.2638,2.2658,2.2675,2.2696,2.2707,2.2735,2.2741,2.2748,2.2751,2.2748,2.2747,2.2757,2.2755,2.2756,2.2755,2.2755,2.2755,0,2.2451,2.2469,2.2503,2.2532,2.254,2.256,2.2584,2.2603,2.2616,2.2643,2.265,2.2671,2.2697,2.2712,2.2744,2.2751,2.2782,2.2784,2.2775,2.2776,2.279,2.2789,2.2833,2.2839,2.2808,2.2808,2.2808,0,2.2469,2.2489,2.252,2.2536,2.2551,2.2575,2.2592,2.2607,2.2624,2.2653,2.2667,2.2694,2.2716,2.2756,2.2773,2.2798,2.28,2.2814,2.2804,2.28,2.2801,2.28,2.2802,2.2816,2.2816,2.2816,2.2817,0,2.2498,2.2506,2.2531,2.2558,2.2578,2.26,2.2622,2.2633,2.2653,2.2671,2.2698,2.2715,2.2748,2.2774,2.28,2.2814,2.2818,2.282,2.2824,2.2822,2.2816,2.2819,2.278,2.2819,2.2818,2.2818,2.2818,2.2818,2.2517,2.2535,2.2561,2.2587,2.2605,2.2626,2.2644,2.266,2.2684,2.2713,2.272,2.2748,2.2771,2.2806,2.282,2.2842,2.284,2.2847,2.2848,2.285,2.285,2.2812,2.2847,2.2847,2.2847,2.2846,2.2846,0,2.2547,2.2564,2.2589,2.2619,2.264,2.2643,2.2668,2.2684,2.271,2.2731,2.2752,2.2783,2.2808,2.2827,2.2853,2.2866,2.2869,2.2872,2.2872,2.2875,2.2851,2.2844,2.287,2.287,2.287,2.287,2.287,2.287,2.2566,2.2597,2.2608,2.2647,2.2664,2.2692,2.2706,2.2724,2.2741,2.2775,2.2797,2.2809,2.283,2.2857,2.2879,2.2884,2.2893,2.2896,2.2902,2.2879,2.2876,2.2874,2.2868,2.2898,2.2898,2.2924,2.2924,2.2924]}]]